Preview of NWS' New Version of Forecast
This preview is not operational and should not be used for support decisions.
Latest weather observations around

Houston Intercontinental Airport (KIAH)

Using English Units (Switch to International System of Units)
Date/ Time (CDT) Wind (mph) Vis. (mi) Weather Sky Cond. Temp (°F) Rel. Humidity Wind Chill (°F) Heat Index (°F) Pressure Precip. (in)
Air Dwpt 6 hour Altimeter (inHg) Sea level (inHg) 1 hr 3 hr 6 hr
Max Min
Jun 25 20:53   10 Mostly Cloudy FEW035 SCT075 BKN120 74 73     97%   76 30.03 30.03 0    
Jun 25 19:53 ESE 13 10 Light Rain FEW035 BKN100 OVC140 74 73     97%   76 30.05 30.04 0    
Jun 25 18:53 SE 3 10 Light Rain FEW035 SCT100 OVC140 75 73     94%   77 30.04 30.04 0   0
Jun 25 17:53 ESE 6 10 Light Rain FEW035 BKN100 OVC150 76 73     91%   77 30.04 30.03 0    
Jun 25 16:53 S 14 10 Clear   77 72     84%   78 30.04 30.04 0    
Jun 25 15:53 S 11 10 Cloudy FEW020 BKN150 OVC250 80 69     69%   83 30.05 30.04      
Jun 25 14:53 S 11 10 Cloudy FEW025 SCT110 BKN170 OVC230 81 70     69%   84 30.05 30.05      
Jun 25 13:53 SW 15 10 Cloudy SCT025 BKN095 BKN140 OVC170 84 75     74%   92 30.04 30.04      
Jun 25 13:32 S 13 10 Cloudy BKN030 OVC095 83 74     74%   89 30.04        
Jun 25 12:53 SSE 8 10 Mostly Cloudy FEW095 SCT150 BKN180 BKN250 82 75     79%   89 30.03 30.03     0
Jun 25 11:53 SSE 5 10 Mostly Cloudy FEW095 SCT150 BKN180 BKN250 81 75     82%   87 29.99 29.99      
Jun 25 10:53 ESE 10 10 Mostly Cloudy FEW065 SCT095 BKN150 BKN250 76 74     94%   78 30.02 30.02 0    
Jun 25 09:53   10 Light Rain FEW010 SCT090 BKN120 BKN250 73 73     100%   75 30.01 30.01 0 0  
Jun 25 08:53 SE 9 7 Light Rain FEW035 SCT075 BKN100 BKN250 74 73     97%   76 30.01 30.01 0    
Jun 25 08:31 WSW 5 5 Light Rain and Fog/Mist SCT035 BKN070 OVC250 73 72     96%   75 30   0    
Jun 25 08:19 SSW 13 2.5 Heavy Rain and Fog/Mist SKC BKN035 OVC065 75 72     90%   76 30   0    
Jun 25 08:10 S 9 7 Light Rain BKN035 BKN065 BKN250 75 71     88%   76 30   0    
Jun 25 07:53 SSE 15 10 Mostly Cloudy FEW020 BKN065 BKN100 BKN170 BKN250 75 71     88%   76 29.99 29.98      
Jun 25 06:53 E 8 10 Cloudy SCT017 BKN040 BKN200 OVC250 76 73     91%   77 29.94 29.94      
Jun 25 06:39 ENE 9 10 Cloudy FEW020 SCT037 BKN200 OVC250 76 73     91%   77 29.93        
Jun 25 06:15 ENE 6 10 Thunderstorms FEW025 SCT040 OVC250 75 74     96%   77 29.92        
Jun 25 05:53 N 3 10 Cloudy FEW025 SCT044 OVC250 76 74     94%   78 29.92 29.92      
Jun 25 04:53 Calm 10 Cloudy SCT027 BKN040 OVC250 75 74     96%   77 29.95 29.95      
Jun 25 04:36 Calm 10 Cloudy SCT028 BKN040 OVC250 75 74     96%   77 29.94        
Jun 25 03:53 Calm 10 Cloudy BKN028 OVC250 76 74     94%   78 29.94 29.94      
Jun 25 03:16 Calm 10 Cloudy BKN028 OVC250 76 74     94%   78 29.94        
Jun 25 02:53 Calm 10 Mostly Cloudy FEW030 BKN230 75 73     94%   77 29.95 29.94      
Jun 25 01:53 SE 6 10 Mostly Cloudy BKN220 74 72     94%   75 29.93 29.93      
Jun 25 00:53 SSE 3 10 Mostly Cloudy BKN220 75 73     94%   77 29.95 29.94      
Jun 24 23:53 Calm 10 Mostly Cloudy BKN210 75 72     90%   76 29.96 29.96      
Jun 24 22:53 Calm 10 Mostly Cloudy BKN220 76 71     85%   77 29.91 29.91      
Jun 24 21:53 S 3 10 Mostly Cloudy SCT190 BKN230 81 70     69%   84 29.84 29.84      
Jun 24 20:53 S 7 10 Mostly Cloudy SCT210 BKN250 82 73     74%   87 29.85 29.85      
Jun 24 19:53 S 9 10 Clear   83 72     70%   88 29.87 29.87      
Jun 24 18:53 S 9 10 Mostly Cloudy FEW035 BKN200 BKN250 84 73     70%   90 29.89 29.89      
Jun 24 17:53 S 9 10 Mostly Cloudy FEW035 SCT190 BKN250 86 72     63%   92 29.93 29.93      
Jun 24 16:53 7 10 Clear   88 73     61%   96 29.94 29.94      
Jun 24 15:53 S 7 10 Mostly Cloudy FEW030 SCT200 BKN250 87 73     63%   95 29.93 29.93      
Jun 24 14:53 S 9 10 Mostly Cloudy FEW030 BKN200 BKN250 86 73     65%   93 29.95 29.95      
Jun 24 13:53 SSE 13 10 Mostly Cloudy FEW025 FEW120 BKN200 BKN250 83 71     67%   88 29.94 29.93      
Jun 24 12:53 SE 10 10 Mostly Cloudy FEW020 SCT100 SCT190 BKN250 81 71     72%   85 29.95 29.94     0
Jun 24 11:53 SE 7 10 Mostly Cloudy FEW015 BKN095 BKN180 BKN220 BKN250 77 71     82%   78 29.96 29.96      
Jun 24 10:53 SE 15 10 Mostly Cloudy FEW010 SCT090 SCT130 BKN180 BKN220 72 69     91%   73 29.94 29.93 0    
Jun 24 09:53   7 Light Rain FEW010 SCT055 BKN090 OVC130 69 68     96%     29.91   0 0  
Jun 24 08:53 E 10 6 Rain and Fog/Mist FEW010 BKN110 OVC140 69 69     100%     29.98 29.98 0    
Jun 24 08:13 E 11 5 Rain and Fog/Mist SCT012 SCT040 OVC110 69 69     100%     29.99   0    
Jun 24 07:53 NNE 6 4 Thunderstorms and Rain and Fog/Mist SCT011 BKN040 OVC110 69 68     96%     30.02 30.01 0    
Jun 24 07:26 N 10 4 Thunderstorms and Rain and Fog/Mist BKN011 BKN040 OVC110 69 69     100%     30.02   0    
Jun 24 07:01 NE 15 5 Heavy Rain and Fog/Mist BKN008 BKN040 OVC070 69 69     100%     29.98   0    
Jun 24 06:53 ENE 15 3 Light Rain and Fog/Mist SCT008 BKN030 OVC075 69 69     100%     29.99 29.99 0   1
Jun 24 06:25 ENE 14 3 Thunderstorms and Rain and Fog/Mist FEW008 BKN030 OVC070 69 69     100%     29.98   0    
Jun 24 05:53 NE 17 2.5 Thunderstorms and Rain and Fog/Mist SCT014 BKN037 BKN070 OVC130 68 68     100%     29.96 29.96 1    
Jun 24 05:20   1.75 Thunderstorms and Heavy Rain and Fog/Mist FEW015 BKN022 OVC031 70 68     93%     29.95   0    
Jun 24 04:53   8 Thunderstorms FEW010 BKN022 BKN036 OVC250 83 80     91%   95 29.89 29.88      
Jun 24 04:44 E 5 8 Thunderstorms BKN029 BKN036 OVC250 83 80     91%   95 29.88        
Jun 24 04:11 S 7 8 Thunderstorms SCT021 BKN033 OVC250 83 80     91%   95 29.85        
Jun 24 03:53 S 5 8 Cloudy FEW017 BKN025 BKN042 OVC250 83 80     91%   95 29.85 29.85   0  
Jun 24 03:46 S 6 8 Cloudy FEW017 BKN025 BKN042 OVC250 83 80     91%   95 29.85        
Jun 24 02:53 S 9 8 Mostly Cloudy BKN019 BKN040 BKN250 83 80     91%   95 29.86 29.85 0    
Jun 24 01:53 S 7 8 Cloudy SCT017 BKN023 OVC250 84 80     88%   97 29.86 29.85      
Jun 24 00:53 S 11 8 Mostly Cloudy SCT016 BKN022 BKN250 84 80     88%   97 29.85 29.84      
Jun 23 23:53 SSE 16 9 Mostly Cloudy BKN020 BKN250 85 80     85%   99 29.84 29.83      
Jun 23 22:53 S 13 10 Mostly Cloudy BKN020 BKN250 85 80     85%   99 29.84 29.84      
Jun 23 21:53 S 14 10 Mostly Cloudy BKN022 BKN250 85 79     82%   98 29.82 29.82      
Jun 23 20:53 S 14 10 Mostly Clear FEW025 FEW250 86 78     77%   98 29.81 29.81      
Jun 23 19:53 S 16 10 Mostly Clear FEW030 FEW250 88 79     75%   103 29.8 29.8      
Jun 23 18:53 S 11 10 Partly Cloudy SCT032 SCT250 89 79     72%   105 29.81 29.8     0
Jun 23 17:53 S 10 10 Partly Cloudy FEW017 SCT032 SCT250 91 80     70%   109 29.81 29.81      
Jun 23 17:40 S 16 10 Partly Cloudy FEW017 SCT033 SCT250 90 80     73%   108 29.82        
Jun 23 17:21 SSE 16 10 Thunderstorms FEW017 SCT036 SCT250 91 79     68%   108 29.82        
Jun 23 16:53 SSE 11 10 Partly Cloudy FEW024 SCT036 SCT250 90 78     68%   105 29.83 29.82 0    
Jun 23 15:53   10 Mostly Cloudy SCT036 SCT180 BKN250 91 79     68%   108 29.84 29.83   0  
Jun 23 14:55 S 14 10 Mostly Cloudy FEW020 SCT033 SCT047 BKN250 93 80     66%   112 29.85        
Jun 23 14:53   10 Thunderstorms FEW020 SCT033 SCT047 BKN250 93 80     66%   112 29.85 29.85 0    
Jun 23 14:34 S 11 10 Thunderstorms FEW022 SCT036 BKN050 BKN250 91 80     70%   109 29.86   0    
Jun 23 14:26 S 15 10 Light Rain FEW022 SCT036 BKN050 BKN250 91 80     70%   109 29.86   0    
Jun 23 14:04 SSE 13 10 Thunderstorms and Rain FEW021 SCT036 BKN050 BKN250 89 79     72%   105 29.87   0    
Jun 23 13:53 S 15 10 Light Rain FEW022 SCT036 BKN050 BKN250 90 80     73%   108 29.88 29.87 0    
Jun 23 12:53   10 Mostly Cloudy FEW019 SCT035 SCT046 BKN250 90 81     75%   109 29.9 29.89 0   0
Jun 23 11:53 S 15 9 Light Rain SCT036 SCT048 BKN250 89 78     70%   103 29.91 29.91 0    
Jun 23 10:53 S 13 10 Mostly Cloudy SCT031 SCT042 BKN180 BKN250 90 78     68%   105 29.92 29.91      
Jun 23 09:53   10 Mostly Cloudy SCT027 SCT038 BKN180 BKN250 88 78     73%   102 29.93 29.93      
Jun 23 08:53   10 Mostly Cloudy SCT023 SCT033 BKN180 BKN250 86 78     77%   98 29.94 29.93      
Jun 23 07:53 SSE 13 10 Partly Cloudy FEW025 FEW180 SCT250 84 78     82%   95 29.92 29.92      
Jun 23 06:53 S 11 10 Partly Cloudy FEW023 FEW034 SCT180 SCT250 83 78     85%   93 29.91 29.91      
Jun 23 05:53 S 9 10 Mostly Cloudy FEW019 SCT034 BKN043 BKN180 BKN250 83 79     88%   94 29.92 29.91      
Jun 23 05:47 S 9 10 Mostly Cloudy FEW019 SCT034 BKN043 BKN180 BKN250 82 79     89%   92 29.91        
Jun 23 04:53 S 9 10 Clear   83 79     88%   94 29.92 29.92      
Jun 23 03:53 S 14 10 Cloudy SCT020 SCT027 BKN180 OVC250 84 79     85%   96 29.92 29.91      
Jun 23 02:53 S 13 10 Cloudy SCT020 SCT027 BKN180 OVC250 84 79     85%   96 29.93 29.93      
Jun 23 01:53 SSE 15 10 Cloudy SCT019 SCT027 BKN180 OVC250 84 79     85%   96 29.95 29.94      
Jun 23 00:53 S 13 10 Cloudy SCT018 BKN180 OVC250 84 80     88%   97 29.96 29.95      
Jun 22 23:53 S 14 10 Mostly Cloudy SCT018 BKN200 BKN250 85 80     85%   99 29.95 29.94      
Jun 22 22:53 S 11 10 Mostly Cloudy SCT018 SCT200 BKN250 85 80     85%   99 29.93 29.93      
May 15 10:53 SW 5 10 Mostly Cloudy FEW030 BKN180 BKN250 83 68     61%   86 29.99 29.99      
May 15 05:53 Calm 7 Fog FEW008 FEW250 66 66     100%     29.92 29.91      
May 14 16:53   10 Mostly Cloudy FEW065 BKN250 90 68     49%   94 29.91 29.91      
May 11 14:53 S 13 10 Partly Cloudy SCT050 89 65     45%   91 29.95 29.95      
Jun 10 20:53 SE 15 10 Mostly Clear FEW035 79 70     74%   82 29.89 29.89      
Jun 09 22:53 S 3 10 Mostly Cloudy FEW050 SCT180 BKN250 75 65     71%   76 29.91 29.91      
Jun 09 06:53 Calm 10 Partly Cloudy FEW070 SCT250 69 65     87%     29.91 29.91      
Jun 08 18:53 NE 8 10 Mostly Clear FEW070 FEW250 86 60     42%   86 29.86 29.86      
Jun 06 09:53 NNW 7 10 Mostly Clear FEW020 81 73     77%   86 29.78 29.78      
Jun 06 06:53 WNW 3 10 Mostly Clear FEW020 FEW070 FEW250 73 71     94%   74 29.77 29.77      
Notice The following observation data may not be complete
Jun 05 18:23   0.5 Thunderstorms and Heavy Rain and Fog/Mist SCT024 SCT042 BKN070 BKN130 BKN250          %         0